Location: Chmeln�
(49.6483°N, 14.9871°E)
Time: 08:05:37
(UTC+00:00)

Lacrosse 5 rocket - Pass Details

Date: 19 January 2021
Orbit: 465 x 630 km, 57.0° (Epoch: 04 March)

Event Time Altitude Azimuth Distance (km) Brightness Sun altitude
Exits shadow 03:47:08 26° 55° (NE) 1,049 3.2 -28.8°
Drops below altitude 10° 03:49:17 10° 81° (E) 1,715 4.8 -28.4°
Sets 03:51:33 0° 91° (E) 2,572 6.0 -28.0°
